HFY755 RPVM-RPLC

Flight info

Callsign HFY755
Flight time 0h 58m
Altitude 38000
Route MULOP4P MULOP W11 MIA W16 OLIVA OLIVA3P
Aircraft A346/H-SDE2E3FGHIJ3J4J5M1RWXY/LB1D1

Departure

Time 2026-05-08 08:50
Airport Mactan Cebu International Airport (RPVM)

Arrival

Time 2026-05-08 09:49
Airport Clark International Airport / Clark Air Base (RPLC)
Time Latitude Longitude Altitude Speed Heading
2026-05-08 08:20 10.31402 123.97841 42 ft 0 kts 315°
2026-05-08 08:34 10.31395 123.97848 44 ft 4 kts 314°
2026-05-08 08:34 10.31377 123.97867 40 ft 4 kts 312°
2026-05-08 08:34 10.31367 123.97883 45 ft 4 kts 278°
2026-05-08 08:34 10.31366 123.97888 44 ft 4 kts 245°
2026-05-08 08:35 10.31382 123.97898 41 ft 4 kts 198°
2026-05-08 08:35 10.31408 123.97905 44 ft 4 kts 191°
2026-05-08 08:35 10.31417 123.97906 40 ft 1 kts 189°
2026-05-08 08:35 10.31420 123.97907 41 ft 0 kts 189°
2026-05-08 08:40 10.31408 123.97905 45 ft 4 kts 188°
2026-05-08 08:40 10.31369 123.97896 45 ft 8 kts 195°
2026-05-08 08:40 10.31314 123.97906 45 ft 10 kts 147°
2026-05-08 08:40 10.31280 123.97940 45 ft 1 kts 134°
2026-05-08 08:44 10.31261 123.97960 45 ft 8 kts 134°
2026-05-08 08:44 10.31204 123.97974 45 ft 11 kts 201°
2026-05-08 08:45 10.31134 123.97920 45 ft 14 kts 223°
2026-05-08 08:45 10.31059 123.97842 44 ft 17 kts 224°
2026-05-08 08:45 10.30965 123.97748 45 ft 21 kts 225°
2026-05-08 08:45 10.30856 123.97638 45 ft 23 kts 224°
2026-05-08 08:46 10.30734 123.97517 45 ft 26 kts 224°
2026-05-08 08:46 10.30600 123.97382 45 ft 28 kts 224°
2026-05-08 08:46 10.30458 123.97240 45 ft 29 kts 224°
2026-05-08 08:46 10.30313 123.97095 45 ft 26 kts 224°
2026-05-08 08:47 10.30183 123.96965 45 ft 27 kts 224°
2026-05-08 08:47 10.30043 123.96824 45 ft 29 kts 224°
2026-05-08 08:47 10.29942 123.96724 45 ft 10 kts 224°
2026-05-08 08:47 10.29883 123.96715 45 ft 11 kts 161°
2026-05-08 08:48 10.29819 123.96770 45 ft 13 kts 135°
2026-05-08 08:48 10.29745 123.96843 45 ft 12 kts 135°
2026-05-08 08:48 10.29720 123.96886 45 ft 6 kts 79°
2026-05-08 08:48 10.29744 123.96924 44 ft 0 kts 47°
2026-05-08 08:49 10.29744 123.96925 44 ft 0 kts 49°
2026-05-08 08:49 10.29754 123.96937 44 ft 5 kts 51°
2026-05-08 08:49 10.29791 123.96974 44 ft 18 kts 44°
2026-05-08 08:50 10.30063 123.97245 44 ft 91 kts 45°
2026-05-08 08:50 10.30668 123.97852 44 ft 151 kts 45°
2026-05-08 08:50 10.31482 123.98669 476 ft 167 kts 44°
2026-05-08 08:50 10.32318 123.99513 1221 ft 170 kts 45°
2026-05-08 08:51 10.33173 124.00377 1758 ft 180 kts 46°
2026-05-08 08:51 10.34096 124.01322 2167 ft 196 kts 46°
2026-05-08 08:51 10.35161 124.02279 2593 ft 214 kts 29°
2026-05-08 08:51 10.36669 124.02497 2930 ft 240 kts 349°
2026-05-08 08:52 10.38319 124.01918 3402 ft 260 kts 341°
2026-05-08 08:52 10.40059 124.01254 4010 ft 272 kts 342°
2026-05-08 08:52 10.41843 124.00598 4846 ft 275 kts 343°
2026-05-08 08:52 10.43650 123.99949 5756 ft 276 kts 343°
2026-05-08 08:53 10.45474 123.99303 6607 ft 279 kts 343°
2026-05-08 08:53 10.47316 123.98638 7412 ft 284 kts 339°
2026-05-08 08:53 10.48999 123.97524 8205 ft 292 kts 321°
2026-05-08 08:53 10.50503 123.96109 9066 ft 297 kts 318°
2026-05-08 08:54 10.51986 123.94658 9848 ft 302 kts 318°
2026-05-08 08:54 10.53531 123.93175 10515 ft 310 kts 319°
2026-05-08 08:54 10.55154 123.91654 10970 ft 326 kts 319°
2026-05-08 08:54 10.56887 123.90061 11352 ft 344 kts 319°
2026-05-08 08:55 10.58724 123.88389 11710 ft 362 kts 320°
2026-05-08 08:55 10.60623 123.86672 12184 ft 374 kts 320°
2026-05-08 08:55 10.62590 123.84895 12907 ft 379 kts 320°
2026-05-08 08:55 10.64571 123.83107 13705 ft 382 kts 320°
2026-05-08 08:56 10.66572 123.81305 14386 ft 386 kts 320°
2026-05-08 08:56 10.68596 123.79480 15015 ft 391 kts 320°
2026-05-08 08:56 10.70625 123.77651 15591 ft 396 kts 320°
2026-05-08 08:56 10.72709 123.75773 16208 ft 401 kts 320°
2026-05-08 08:57 10.74803 123.73887 16848 ft 405 kts 320°
2026-05-08 08:57 10.76924 123.71977 17463 ft 409 kts 320°
2026-05-08 08:57 10.79069 123.70043 18078 ft 414 kts 320°
2026-05-08 08:57 10.81246 123.68081 18589 ft 418 kts 320°
2026-05-08 08:58 10.83443 123.66102 19116 ft 422 kts 320°
2026-05-08 08:58 10.85621 123.64138 19672 ft 424 kts 320°
2026-05-08 08:58 10.87838 123.62140 20232 ft 427 kts 320°
2026-05-08 08:58 10.90070 123.60127 20788 ft 430 kts 320°
2026-05-08 08:59 10.92312 123.58102 21357 ft 432 kts 320°
2026-05-08 08:59 10.94580 123.56055 21907 ft 435 kts 320°
2026-05-08 08:59 10.96866 123.53990 22450 ft 438 kts 320°
2026-05-08 08:59 10.99172 123.51949 22986 ft 440 kts 321°
2026-05-08 09:00 11.01578 123.50015 23499 ft 443 kts 324°
2026-05-08 09:00 11.04101 123.48195 23950 ft 445 kts 326°
2026-05-08 09:00 11.06661 123.46404 24407 ft 447 kts 327°
2026-05-08 09:00 11.09239 123.44609 24841 ft 450 kts 326°
2026-05-08 09:01 11.11850 123.42792 25267 ft 453 kts 326°
2026-05-08 09:01 11.14466 123.40970 25697 ft 457 kts 326°
2026-05-08 09:01 11.17105 123.39129 26124 ft 460 kts 326°
2026-05-08 09:01 11.19754 123.37279 26546 ft 463 kts 326°
2026-05-08 09:02 11.22423 123.35414 26954 ft 466 kts 326°
2026-05-08 09:02 11.25109 123.33534 27375 ft 469 kts 326°
2026-05-08 09:02 11.27782 123.31663 27787 ft 472 kts 326°
2026-05-08 09:02 11.30517 123.29749 28195 ft 476 kts 325°
2026-05-08 09:03 11.33259 123.27830 28596 ft 479 kts 325°
2026-05-08 09:03 11.36020 123.25898 28991 ft 482 kts 325°
2026-05-08 09:03 11.38795 123.23957 29394 ft 485 kts 325°
2026-05-08 09:03 11.41558 123.22024 29772 ft 488 kts 325°
2026-05-08 09:04 11.44413 123.20024 30112 ft 491 kts 325°
2026-05-08 09:04 11.47241 123.18042 30461 ft 493 kts 325°
2026-05-08 09:04 11.50073 123.16058 30966 ft 491 kts 324°
2026-05-08 09:04 11.52880 123.14090 31560 ft 487 kts 324°
2026-05-08 09:05 11.55665 123.12139 32164 ft 483 kts 324°
2026-05-08 09:05 11.58392 123.10227 32755 ft 479 kts 324°
2026-05-08 09:05 11.61134 123.08303 33334 ft 476 kts 324°
2026-05-08 09:05 11.63851 123.06397 33906 ft 473 kts 324°
2026-05-08 09:06 11.66547 123.04505 34467 ft 468 kts 323°
2026-05-08 09:06 11.69235 123.02618 35017 ft 464 kts 323°
2026-05-08 09:06 11.71891 123.00755 35526 ft 460 kts 323°
2026-05-08 09:06 11.74526 122.98903 35999 ft 458 kts 323°
2026-05-08 09:07 11.77151 122.97056 36401 ft 457 kts 323°
2026-05-08 09:07 11.79773 122.95210 36725 ft 458 kts 322°
2026-05-08 09:07 11.82407 122.93356 37051 ft 460 kts 322°
2026-05-08 09:07 11.85046 122.91497 37390 ft 461 kts 322°
2026-05-08 09:08 11.87697 122.89631 37740 ft 462 kts 322°
2026-05-08 09:08 11.90350 122.87765 37829 ft 463 kts 322°
2026-05-08 09:08 11.95638 122.84045 37833 ft 460 kts 322°
2026-05-08 09:09 12.00880 122.80359 37834 ft 460 kts 322°
2026-05-08 09:09 12.06202 122.76612 37846 ft 471 kts 322°
2026-05-08 09:10 12.11671 122.72757 37847 ft 480 kts 322°
2026-05-08 09:10 12.17182 122.68874 37842 ft 481 kts 322°
2026-05-08 09:11 12.22689 122.64990 37843 ft 481 kts 322°
2026-05-08 09:11 12.28190 122.61105 37844 ft 481 kts 322°
2026-05-08 09:12 12.33672 122.57231 37848 ft 480 kts 322°
2026-05-08 09:12 12.39176 122.53341 37846 ft 482 kts 323°
2026-05-08 09:13 12.44706 122.49440 37846 ft 483 kts 323°
2026-05-08 09:13 12.50247 122.45526 37848 ft 483 kts 323°
2026-05-08 09:14 12.55778 122.41615 37849 ft 483 kts 322°
2026-05-08 09:14 12.61297 122.37709 37841 ft 475 kts 322°
2026-05-08 09:15 12.63982 122.35810 37845 ft 464 kts 322°
2026-05-08 09:15 12.66627 122.33936 37848 ft 462 kts 322°
2026-05-08 09:15 12.71918 122.30177 37850 ft 463 kts 323°
2026-05-08 09:16 12.77202 122.26421 37848 ft 465 kts 324°
2026-05-08 09:16 12.82529 122.22647 37850 ft 465 kts 324°
2026-05-08 09:17 12.87867 122.18860 37852 ft 465 kts 324°
2026-05-08 09:17 12.93190 122.15081 37849 ft 465 kts 324°
2026-05-08 09:18 12.97620 122.11934 37849 ft 465 kts 323°
2026-05-08 09:18 13.02940 122.08149 37848 ft 465 kts 323°
2026-05-08 09:19 13.08270 122.04354 37791 ft 466 kts 324°
2026-05-08 09:19 13.10937 122.02457 37511 ft 465 kts 324°
2026-05-08 09:19 13.13590 122.00569 37250 ft 463 kts 324°
2026-05-08 09:20 13.16197 121.98715 37003 ft 460 kts 324°
2026-05-08 09:20 13.18859 121.96819 36745 ft 458 kts 324°
2026-05-08 09:20 13.21439 121.94981 36493 ft 457 kts 324°
2026-05-08 09:20 13.24055 121.93117 36261 ft 457 kts 324°
2026-05-08 09:21 13.26681 121.91245 36023 ft 458 kts 324°
2026-05-08 09:21 13.29294 121.89382 35778 ft 458 kts 324°
2026-05-08 09:22 13.45024 121.78156 34393 ft 461 kts 324°
2026-05-08 09:23 13.47678 121.76259 34168 ft 462 kts 324°
2026-05-08 09:23 13.50323 121.74370 33942 ft 463 kts 325°
2026-05-08 09:23 13.52969 121.72480 33698 ft 464 kts 325°
2026-05-08 09:23 13.55622 121.70583 33442 ft 464 kts 324°
2026-05-08 09:24 13.58277 121.68685 33180 ft 465 kts 325°
2026-05-08 09:24 13.60936 121.66781 32938 ft 466 kts 324°
2026-05-08 09:24 13.63608 121.64868 32693 ft 467 kts 325°
2026-05-08 09:24 13.66274 121.62960 32442 ft 467 kts 324°
2026-05-08 09:25 13.68949 121.61044 32171 ft 467 kts 325°
2026-05-08 09:25 13.71591 121.59155 31802 ft 469 kts 325°
2026-05-08 09:25 13.74277 121.57234 31294 ft 470 kts 325°
2026-05-08 09:25 13.76965 121.55309 30699 ft 471 kts 325°
2026-05-08 09:26 13.79660 121.53379 30059 ft 473 kts 325°
2026-05-08 09:26 13.82370 121.51436 29374 ft 473 kts 326°
2026-05-08 09:26 13.85052 121.49511 28956 ft 467 kts 326°
2026-05-08 09:26 13.87712 121.47603 28531 ft 461 kts 326°
2026-05-08 09:27 13.90337 121.45721 28108 ft 456 kts 326°
2026-05-08 09:27 13.92930 121.43859 27702 ft 451 kts 326°
2026-05-08 09:27 13.95490 121.42019 27288 ft 447 kts 326°
2026-05-08 09:27 13.98036 121.40193 26878 ft 442 kts 326°
2026-05-08 09:28 14.00548 121.38386 26460 ft 439 kts 326°
2026-05-08 09:28 14.03041 121.36588 26051 ft 435 kts 326°
2026-05-08 09:28 14.05517 121.34811 25649 ft 432 kts 327°
2026-05-08 09:28 14.07978 121.33040 25245 ft 429 kts 327°
2026-05-08 09:29 14.10431 121.31285 24831 ft 427 kts 326°
2026-05-08 09:29 14.12861 121.29537 24410 ft 424 kts 326°
2026-05-08 09:29 14.15275 121.27800 24005 ft 422 kts 326°
2026-05-08 09:29 14.17677 121.26063 23596 ft 421 kts 327°
2026-05-08 09:30 14.20042 121.24358 23129 ft 419 kts 327°
2026-05-08 09:30 14.22430 121.22644 22687 ft 416 kts 327°
2026-05-08 09:30 14.24793 121.20947 22263 ft 413 kts 327°
2026-05-08 09:30 14.27149 121.19246 21825 ft 411 kts 327°
2026-05-08 09:31 14.29488 121.17561 21398 ft 408 kts 327°
2026-05-08 09:31 14.31813 121.15887 20978 ft 406 kts 327°
2026-05-08 09:31 14.34125 121.14220 20562 ft 404 kts 327°
2026-05-08 09:31 14.36429 121.12558 20142 ft 403 kts 327°
2026-05-08 09:32 14.38726 121.10907 19730 ft 401 kts 327°
2026-05-08 09:32 14.41010 121.09261 19327 ft 399 kts 327°
2026-05-08 09:32 14.43282 121.07618 18912 ft 398 kts 326°
2026-05-08 09:32 14.45543 121.05982 18497 ft 397 kts 326°
2026-05-08 09:33 14.47800 121.04344 18081 ft 396 kts 326°
2026-05-08 09:33 14.50053 121.02714 17618 ft 394 kts 327°
2026-05-08 09:33 14.52312 121.01119 17165 ft 392 kts 328°
2026-05-08 09:33 14.54585 120.99583 16756 ft 390 kts 328°
2026-05-08 09:34 14.56853 120.98062 16341 ft 387 kts 328°
2026-05-08 09:34 14.59113 120.96545 15956 ft 388 kts 328°
2026-05-08 09:34 14.61383 120.95014 15829 ft 391 kts 328°
2026-05-08 09:34 14.63626 120.93495 15542 ft 389 kts 328°
2026-05-08 09:35 14.65909 120.91947 14732 ft 397 kts 328°
2026-05-08 09:35 14.68223 120.90378 14263 ft 395 kts 328°
2026-05-08 09:35 14.70512 120.88824 13839 ft 391 kts 328°
2026-05-08 09:35 14.72776 120.87290 13404 ft 387 kts 329°
2026-05-08 09:36 14.75019 120.85770 12951 ft 383 kts 328°
2026-05-08 09:36 14.77235 120.84269 12528 ft 379 kts 328°
2026-05-08 09:36 14.79429 120.82781 12111 ft 375 kts 328°
2026-05-08 09:36 14.81596 120.81309 11704 ft 370 kts 328°
2026-05-08 09:37 14.83737 120.79855 11299 ft 367 kts 328°
2026-05-08 09:37 14.85865 120.78408 10892 ft 363 kts 328°
2026-05-08 09:37 14.87966 120.76979 10539 ft 358 kts 328°
2026-05-08 09:37 14.90007 120.75591 10428 ft 344 kts 328°
2026-05-08 09:38 14.91973 120.74253 10337 ft 330 kts 328°
2026-05-08 09:38 14.93872 120.73009 10228 ft 317 kts 334°
2026-05-08 09:38 14.95848 120.72188 10132 ft 302 kts 347°
2026-05-08 09:38 14.97868 120.71792 10041 ft 289 kts 354°
2026-05-08 09:39 14.99835 120.71532 9830 ft 284 kts 355°
2026-05-08 09:39 15.01800 120.71288 9482 ft 284 kts 355°
2026-05-08 09:39 15.03758 120.71039 9150 ft 282 kts 354°
2026-05-08 09:39 15.05699 120.70784 8824 ft 280 kts 354°
2026-05-08 09:40 15.07624 120.70527 8535 ft 278 kts 354°
2026-05-08 09:40 15.09545 120.70269 8232 ft 276 kts 354°
2026-05-08 09:40 15.11445 120.70011 7952 ft 274 kts 355°
2026-05-08 09:40 15.13334 120.69760 7644 ft 273 kts 355°
2026-05-08 09:41 15.15219 120.69571 7353 ft 272 kts 356°
2026-05-08 09:41 15.17080 120.69413 7052 ft 271 kts 357°
2026-05-08 09:41 15.18954 120.69258 6757 ft 270 kts 356°
2026-05-08 09:41 15.20829 120.69102 6466 ft 269 kts 357°
2026-05-08 09:42 15.22699 120.68972 6148 ft 269 kts
2026-05-08 09:42 15.24565 120.69198 5827 ft 268 kts 15°
2026-05-08 09:42 15.26328 120.69800 5531 ft 266 kts 21°
2026-05-08 09:42 15.28060 120.70492 5230 ft 266 kts 22°
2026-05-08 09:43 15.29782 120.71192 4925 ft 265 kts 22°
2026-05-08 09:43 15.31502 120.71889 4635 ft 265 kts 22°
2026-05-08 09:43 15.33279 120.72300 4297 ft 268 kts 358°
2026-05-08 09:43 15.35058 120.71766 3989 ft 270 kts 329°
2026-05-08 09:44 15.36388 120.70396 3650 ft 272 kts 298°
2026-05-08 09:44 15.36903 120.68565 3476 ft 262 kts 268°
2026-05-08 09:44 15.36521 120.66778 3319 ft 249 kts 244°
2026-05-08 09:44 15.35746 120.65204 3170 ft 240 kts 238°
2026-05-08 09:45 15.34943 120.63710 2981 ft 234 kts 236°
2026-05-08 09:45 15.33877 120.62490 2679 ft 226 kts 207°
2026-05-08 09:45 15.32521 120.61749 2507 ft 212 kts 200°
2026-05-08 09:45 15.31204 120.61162 2326 ft 199 kts 199°
2026-05-08 09:46 15.29978 120.60639 2119 ft 187 kts 198°
2026-05-08 09:46 15.28817 120.60158 1906 ft 171 kts 194°
2026-05-08 09:46 15.27742 120.59759 1719 ft 159 kts 193°
2026-05-08 09:46 15.26699 120.59396 1523 ft 157 kts 191°
2026-05-08 09:47 15.25678 120.59035 1408 ft 157 kts 192°
2026-05-08 09:47 15.24647 120.58643 1329 ft 158 kts 194°
2026-05-08 09:47 15.23609 120.58233 1197 ft 160 kts 195°
2026-05-08 09:47 15.22578 120.57827 1009 ft 157 kts 195°
2026-05-08 09:48 15.21562 120.57424 795 ft 156 kts 196°
2026-05-08 09:48 15.20548 120.57012 589 ft 156 kts 195°
2026-05-08 09:48 15.19579 120.56625 449 ft 139 kts 194°
2026-05-08 09:48 15.18834 120.56338 431 ft 84 kts 201°
2026-05-08 09:49 15.18460 120.56190 447 ft 46 kts 201°
2026-05-08 09:49 15.18257 120.56110 448 ft 27 kts 200°
2026-05-08 09:49 15.18150 120.56060 446 ft 11 kts 230°
2026-05-08 09:49 15.18157 120.55969 434 ft 16 kts 292°
2026-05-08 09:50 15.18203 120.55849 436 ft 15 kts 290°
2026-05-08 09:50 15.18233 120.55767 441 ft 13 kts 290°
2026-05-08 09:50 15.18272 120.55706 436 ft 11 kts 337°
2026-05-08 09:50 15.18359 120.55721 431 ft 15 kts 20°
2026-05-08 09:51 15.18466 120.55765 433 ft 18 kts 21°
2026-05-08 09:51 15.18596 120.55817 438 ft 22 kts 21°
2026-05-08 09:51 15.18746 120.55878 436 ft 24 kts 20°
2026-05-08 09:51 15.18885 120.55930 434 ft 22 kts 20°
2026-05-08 09:52 15.19022 120.55981 431 ft 18 kts 19°
2026-05-08 09:52 15.19107 120.55999 436 ft 11 kts 335°
2026-05-08 09:52 15.19161 120.55960 428 ft 9 kts 349°
2026-05-08 09:52 15.19234 120.55981 434 ft 13 kts 24°
2026-05-08 09:53 15.19328 120.56016 436 ft 16 kts 20°
2026-05-08 09:53 15.19432 120.56059 437 ft 12 kts 33°
2026-05-08 09:53 15.19474 120.56100 436 ft 6 kts 45°
2026-05-08 09:53 15.19503 120.56123 444 ft 5 kts 28°
2026-05-08 09:54 15.19536 120.56139 434 ft 3 kts 24°
2026-05-08 09:54 15.19550 120.56145 435 ft 1 kts 22°
2026-05-08 09:54 15.19554 120.56146 435 ft 0 kts 22°
2026-05-08 09:54 15.19556 120.56147 436 ft 0 kts 22°